Location: Bonac
(42.8765°N, 0.9753°E)
Time: 14:55:55
(UTC+00:00)

Landsat 7 - Pass Details

Date: 12 January 2026
Orbit: 680 x 682 km, 97.9° (Epoch: 18 February)

Event Time Altitude Azimuth Distance (km) Brightness Sun altitude
Rises 17:29:43 0° 168° (SSE) 3,029 7.2 -8.4°
Reaches altitude 10° 17:31:57 10° 169° (S) 2,118 6.4 -8.8°
Maximum altitude 17:36:35 81° 256° (WSW) 696 3.9 -9.6°
Drops below altitude 10° 17:41:16 10° 345° (NNW) 2,134 6.3 -10.4°
Sets 17:43:32 0° 347° (NNW) 3,054 7.1 -10.8°
